STARLINK-32289, 60737

Orbit data source: Space-Track

STARLINK-32289, 60737 is a payload satellite owned by SpaceX/Seattle (US) in LEO that was launched on Wed, 28 Aug 2024 UTC via an FALCON 9 launch vehicle from the Air Force Eastern Test Range (AFETR). Payload-class satellites include a variety of spacecraft equipped with specific instruments for various scientific and technological missions. These include communications satellites like Starlink; space stations such as the ISS; scientific satellites like the Hubble; Earth observation satellites from companies like Planet Labs, Umbra, and HawkEye 360; GPS; miniature CubeSats for education and research; and military/defense satellites.

Loading next visibility...
Identifier
60737, 2024-152T
Orbit
LEO
Country
Flag of USUS
Related business
Manufacturer
SpaceX/Seattle
Mission
Operational Commercial Communications
Bus & Motor
STARLINK V2M, Unknown motor
Mass
730 kg wet, ~700 kg dry
Launch date (UTC)
2024-08-28 (1 year ago)
Launch vehicle
FALCON 9
Launch site
Air Force Eastern Test Range (AFETR)
Object type
Payload
Rocket body
Debris
Shape & HBR
Box + 2 Pan, 17.7 m
Radar Cross Section
33.884 m², Large (>1 m²)

Expand to show TLE details & history
Last TLE update: 6 hours ago

TLE from 6 hours ago
0 STARLINK-32289
1 60737U 24152T   26034.24461532  .00001837  00000-0  74170-4 0  9991
2 60737  53.1605  68.6717 0001304  95.5395 264.5755 15.30188395 81572
Epoch: 2026-02-03T05:52Z
TLE epoch observation values (Epoch: 2026-02-03T05:52:14.763Z)
Latitude
0.00001°
Longitude
-152.81813°
Altitude
476.234 km
Speed
7.629 km/s
True Right ascension
04h 34m 41s
True Declination
0° 00' 00"
Sunlit
Object was in daylight at epoch
Visualization orbit readout
Latitude
Unknown
Longitude
Unknown
Altitude
Unknown
Speed
Unknown
Apparent Right ascension
Unknown
Apparent Declination
Unknown
Sunlit
N/A
Visualization observer readout
Local Sidereal Time
13:43:43
Azimuth
Unknown
Elevation
Unknown
Doppler factor
Unknown
Orbital elements
Apogee altitude
476.4 km
Perigee altitude
474.612 km
Semi-major axis
6,853.643 km
Eccentricity
0.00013
Inclination
53.1605°
RAAN
68.6717°
Arg. of periapsis
95.5395°
True anomaly
264.56062°
Mean anomaly
264.5755°
Eccentric anomaly
264.56806°
Mean motion
3.82526 °/min
Orbital period
94.11 mins
BSTAR
0.00007417
Loading maneuver chart data...
Computing Atmospheric mass density...
Loading historical data...
Loading historical data...
Loading historical data...
Loading historical data...
Loading historical data...
Loading historical data...
Loading historical data...

Documentation

Showing up to 5 results
|